Regional Weather Roundup
Issued by NWS Newport/Morehead, NC

Home | Current Version | Previous Version | Text Only | Print | Product List | Glossary On
Versions: 1 2 3 4 5 6 7 8 9 10 11 12 13 14 15 16 17 18 19 20 21 22 23 24 25 26 27 28 29 30 31 32 33 34 35 36 37 38 39 40 41 42 43 44 45 46 47 48 49 50
000
ASUS42 KMHX 121325
RWRMHX
WEATHER ROUNDUP FOR EASTERN NORTH CAROLINA
NATIONAL WEATHER SERVICE NEWPORT/MOREHEAD CITY NC
800 AM EST FRI FEB 12 2016

NOTE: "FAIR" INDICATES FEW OR NO CLOUDS BELOW 12,000 FEET
WITH NO SIGNIFICANT WEATHER AND/OR OBSTRUCTIONS TO VISIBILITY

NCZ015>017-031-032-045>047-102-103-121400-
NORTH COAST

CITY           SKY/WX    TMP DP  RH WIND       PRES   REMARKS
EDENTON        CLOUDY    29  17  61 E7        30.32S
ELIZABETH CITY PTSUNNY   28  17  63 NE7       30.33R
KITTY HAWK     CLOUDY    32  19  57 CALM      30.30S
MANTEO         CLOUDY    32  21  64 E9        30.31S

$$

NCZ045>047-081-094-103-104-121400-
CENTRAL COAST

CITY           SKY/WX    TMP DP  RH WIND       PRES   REMARKS
FRISCO         CLOUDY    36  22  56 NE6       30.28S
SWANQUARTER      N/A    N/A N/A N/A E3        30.27S

$$

NCZ095-097-098-100-101-121400-
SOUTHERN COAST

CITY           SKY/WX    TMP DP  RH WIND       PRES   REMARKS
BEAUFORT       CLOUDY    35  19  52 NE9       30.27F
CEDAR ISLAND     N/A     36 N/A N/A NE14G20   30.33S
JACKSONVILLE   CLOUDY    32  14  47 NE9       30.26F
PINEY ISLAND   CLOUDY   N/A N/A N/A NE12      30.29R
WILMINGTON     LGT RAIN  35  20  54 NE10      30.24F


$$

NCZ011>013-027>030-043-044-078>080-089-090>093-098-121400-
COASTAL PLAIN

CITY           SKY/WX    TMP DP  RH WIND       PRES   REMARKS
AHOSKIE        CLOUDY    24  11  57 CALM      30.32S
CLINTON        CLOUDY    31  14  49 NE6       30.27F
ELIZABETHTOWN  CLOUDY    32  13  46 CALM      30.24S
GOLDSBORO      CLOUDY    28  14  54 E6        30.27S
GREENVILLE     CLOUDY    30  14  51 E5        30.30S
HAVELOCK       CLOUDY    33  22  63 NE9       30.29R
KENANSVILLE    CLOUDY    30  14  51 CALM      30.27F
KINSTON        CLOUDY    30  16  55 NE7       30.30S
NEW BERN       MOSUNNY   30  19  63 E7        30.31R
RICHLANDS      CLOUDY    28  14  54 N10       30.26F WCI  19
ROCKY MOUNT    CLOUDY    27  10  49 NE6       30.30S
WASHINGTON     CLOUDY    28  17  62 NE6       30.29S
WHITEVILLE     CLOUDY    33  14  45 NE9       30.22R

$$

AMZ130-135-150-152-154-156-158-170-250-252-270-ANZ085-086-088-633-658-670-121400-
MARINE OBSERVATIONS

STATION/POSITION TIME  TEMP    WIND        PRES    WAVE   SWELL
                       AIR SEA DIR/SP/G            HT/PER HT/PER
                 (UTC) (F)     (DEG/KT/KT) (MB)    (FT/S) (FT/S)
CHESAPEAKE LIGHT 1300   27      30/  9/ 10 1026.9
64 E VA BEACH    1250   31 50  350/ 10/ 14 1025.9    4/ 6   3/ 6
DUCK             1300   30      40/  9/ 11 1025.8
2 E DUCK         1311      43                N/A     3/ 6
OREGON INLET     1300   33 41   20/ 10/ 12 1026.0
13E OREGON INLT  1300      45                N/A     4/ 7
HATTERAS CG      1300   36 45   40/  9/ 13 1024.9
DIAMOND BUOY     1250   42 70   40/ 12/ 16 1025.2    3/ 7   3/ 7
CAPE LOOKOUT     NOT AVBL
BEAUFORT LAB     1300   35 43   30/  8/ 11 1023.9
30 SE NEW RVR IN 1308   47 58              1022.6
30 SE NEW RVR IN 1225      58                N/A     4/ 5
27 SE WRIGHTSVLE 1308   47 62   70/ 17/ 23 1020.6
5 SE WRIGHTSVLE  1208   43 50   60/ 19/ 25 1023.3
225 S CAPE HAT   1250   58 68  170/ 10/ 14   N/A     4/ 6   3/ 6
41 SE CHARLESTON 1250   58 69  240/ 17/ 19 1020.3    4/ 6   2/ 7

$$



USA.gov is the U.S. government's official web portal to all federal, state and local government web resources and services.